Wetbulb
66.12 65.64 65.21 64.59 64.36 64.84 65.13 64.98 64.31 64.44 65.09 65.57 65.25 65.11 65.26 65.39 65.22 65.03 64.89 64.71 64.71 64.62 64.69 65.00 65.05 65.12 65.03 64.92 64.70 64.46 64.40 64.38 64.12 63.37 62.72 62.74 63.37 63.56 63.44 63.12 62.58 62.04 61.59 61.14 61.09 60.81 60.63 60.49 60.25 60.09 59.89 59.85 59.94 60.03 60.07 59.89 59.72 59.66 59.51 59.07 58.70 58.53 58.19 57.66 57.29 57.17 57.20 56.95 57.10
65.93 65.52 64.79 63.26 63.24 64.33 65.25 64.80 64.57 64.73 65.17 65.98 65.80 65.74 65.61 65.55 65.36 65.26 65.19 65.11 65.19 65.16 64.95 64.99 65.05 65.28 65.38 65.22 64.96 64.90 64.66 64.19 63.92 63.62 63.24 63.13 63.55 63.56 63.24 62.94 62.49 62.08 61.72 61.36 60.96 60.72 60.51 60.36 60.00 59.79 59.53 59.62 59.67 59.58 59.69 59.67 59.36 59.08 58.66 58.34 58.22 58.16 57.94 57.34 57.28 57.10 56.99 56.87 56.93
65.76 65.68 65.42 65.13 65.21 65.29 65.17 65.00 65.24 65.52 65.71 65.82 66.23 66.13 65.88 65.91 65.68 65.47 65.47 65.56 65.80 65.76 65.53 65.26 65.75 65.92 65.80 65.47 65.44 65.39 65.16 64.74 64.20 63.90 63.73 63.54 63.67 63.49 63.19 62.94 62.62 62.04 61.52 61.52 61.35 61.05 60.78 60.60 59.80 59.13 58.86 59.35 59.31 59.41 59.31 59.62 59.08 58.53 58.10 57.85 57.77 57.82 57.73 57.21 57.05 56.87 56.76 56.59 56.66
65.82 65.79 65.59 65.51 65.56 65.43 65.22 65.05 65.40 65.57 65.74 65.69 66.15 66.25 66.15 66.02 65.77 65.77 65.79 65.87 66.12 65.95 65.61 65.70 66.58 66.50 65.96 65.33 65.51 65.48 65.22 64.21 64.24 64.00 63.83 63.72 63.76 63.60 63.19 63.24 62.71 62.42 62.24 62.04 61.59 61.50 61.32 60.96 60.06 59.53 59.26 59.43 59.44 59.26 59.08 59.08 58.68 58.27 57.90 57.85 57.58 57.58 57.58 57.21 57.13 56.86 56.59 56.59 56.76
65.59 65.76 65.85 65.74 65.90 65.89 65.65 65.57 65.45 65.41 65.52 65.74 65.74 65.82 65.88 65.86 65.83 65.84 65.80 65.62 65.78 65.95 66.12 66.52 67.32 67.06 66.39 65.93 65.44 65.27 65.01 64.38 62.56 62.89 63.92 63.91 63.91 63.94 63.70 63.38 62.99 62.67 62.42 62.13 61.90 61.72 61.25 60.93 60.17 59.83 59.74 59.61 59.62 59.34 59.16 59.11 58.71 58.26 57.81 57.54 57.55 57.45 57.40 57.31 57.13 56.77 56.41 56.28 56.56
65.33 65.56 65.76 65.91 65.99 65.85 65.61 65.52 65.39 65.29 65.25 65.35 65.35 65.40 65.41 65.57 65.63 65.65 65.61 65.63 65.96 66.29 66.46 65.89 66.20 65.94 65.94 66.54 65.93 65.25 64.85 64.75 63.85 63.77 64.10 63.99 64.02 64.05 63.88 63.47 63.26 62.99 62.58 62.24 61.90 61.52 61.17 60.72 60.00 59.61 59.61 59.70 59.62 59.53 59.17 58.90 58.48 58.08 57.63 57.28 57.28 57.18 57.04 57.00 56.86 56.59 56.23 55.92 56.10
65.34 65.37 65.56 65.96 65.93 65.76 65.39 65.51 65.36 65.29 65.25 65.03 65.08 65.16 65.52 65.94 65.87 65.83 65.83 65.92 66.12 66.22 65.90 64.93 65.56 65.82 66.07 66.58 66.17 65.62 64.96 64.43 64.48 64.45 64.35 63.97 63.75 63.58 63.39 63.39 63.10 62.90 62.72 62.17 61.72 61.27 60.87 60.52 59.83 58.99 58.42 58.21 59.04 59.29 58.90 58.55 58.21 57.72 57.28 56.97 57.10 57.10 56.91 56.86 56.66 56.40 56.14 55.89 55.71
65.90 65.52 65.25 65.59 65.87 65.61 65.30 65.33 65.46 65.42 65.24 64.89 64.84 65.17 65.64 65.82 65.76 65.76 65.83 65.71 65.76 65.81 65.85 65.56 66.53 66.58 66.48 66.41 66.46 66.04 65.53 64.77 64.45 64.45 64.54 64.27 63.77 63.37 63.37 63.32 63.04 62.81 62.55 62.19 61.68 61.25 60.71 60.45 59.83 59.34 58.99 58.63 58.90 58.80 58.55 58.27 58.07 57.67 57.23 57.04 56.91 56.91 56.84 56.50 56.35 56.18 56.04 55.68 55.56
65.77 65.56 65.26 65.27 65.44 65.22 64.99 65.09 65.45 65.42 65.21 64.97 65.19 65.44 65.79 65.91 65.57 65.50 65.39 65.10 65.16 65.36 65.72 65.60 66.19 66.37 66.28 66.11 66.19 66.12 65.85 65.20 64.70 64.42 64.42 64.33 63.69 63.19 63.02 62.86 62.58 62.39 62.19 62.01 61.77 61.32 60.98 60.51 59.97 59.61 59.34 58.98 58.98 58.73 58.30 57.89 57.79 57.47 57.20 56.94 56.68 56.68 56.67 56.53 56.28 56.19 55.98 55.67 55.38
65.09 64.96 64.96 64.90 65.09 64.72 64.66 64.98 65.26 65.25 65.14 64.95 65.14 65.23 64.80 63.70 64.45 64.92 65.18 64.76 64.56 64.80 65.07 65.15 65.52 65.68 65.51 65.16 65.29 65.42 65.53 65.14 64.71 64.42 64.17 63.58 63.05 62.89 62.64 62.39 62.10 61.94 61.83 61.86 61.70 61.52 61.16 60.69 60.06 59.79 59.61 59.38 59.17 58.81 58.37 57.74 57.37 57.20 57.08 56.68 56.33 56.36 56.31 56.36 56.18 56.01 55.83 55.57 55.49
64.73 64.70 64.53 64.67 64.90 64.55 64.32 65.14 64.89 64.69 64.50 64.37 64.43 64.53 64.37 63.44 64.32 64.70 64.67 64.41 64.18 64.31 64.65 64.71 64.79 64.72 64.54 64.25 64.34 64.54 64.67 64.59 64.21 63.94 63.80 63.58 62.94 62.71 62.60 62.15 62.01 61.70 61.72 61.77 61.80 61.50 60.96 60.34 59.88 59.74 59.54 59.38 59.37 59.06 58.49 57.72 57.29 57.11 56.98 56.63 56.50 56.17 56.15 56.03 56.04 55.91 55.91 55.79 55.91
64.30 64.30 64.27 64.48 64.67 64.64 64.52 64.78 64.39 64.14 63.80 63.63 63.73 63.91 64.26 64.54 64.52 64.12 63.78 64.03 64.04 64.02 64.09 64.38 64.40 64.43 64.52 64.51 64.53 64.43 64.30 64.61 64.30 64.05 63.78 63.67 63.44 63.35 62.99 62.46 62.19 61.97 61.81 61.81 61.70 61.33 60.75 60.06 59.83 59.63 59.35 59.08 59.09 58.81 58.41 57.58 57.20 56.97 56.84 56.75 56.56 56.25 56.15 55.76 55.87 55.94 56.04 56.21 55.83
63.67 63.69 63.69 63.79 63.94 64.14 64.37 64.13 64.08 63.80 63.56 63.46 63.43 63.50 63.86 64.24 63.99 63.72 63.75 64.04 63.98 64.01 64.06 64.10 64.42 64.80 65.04 64.91 65.07 65.32 65.41 65.23 64.96 64.41 63.84 63.69 63.41 63.35 63.15 62.83 62.56 62.17 61.88 61.81 61.61 61.14 60.60 60.18 59.98 59.57 59.17 58.82 58.66 58.46 58.22 57.70 57.18 56.92 56.75 56.68 56.31 56.02 55.94 55.76 55.87 56.00 56.12 56.13 55.81
62.81 62.83 62.83 63.06 63.10 63.06 63.15 63.27 63.15 63.23 63.33 63.31 63.32 63.49 63.75 64.20 63.81 63.64 63.73 64.23 64.16 64.15 64.05 64.01 64.15 64.39 64.85 65.33 65.13 65.34 65.62 65.40 65.16 64.68 64.12 63.42 63.15 62.96 62.90 62.71 62.56 62.17 61.83 61.63 61.34 60.98 60.62 60.17 59.93 59.57 59.03 58.54 58.36 58.27 58.03 57.62 57.35 57.08 56.89 56.58 56.31 56.19 56.09 55.96 55.96 56.02 56.15 56.13 55.73
62.22 62.24 62.30 62.38 62.33 62.11 62.11 62.21 62.39 62.73 62.99 63.09 63.16 63.43 63.69 63.97 63.60 63.49 63.73 64.47 64.38 64.19 64.21 64.30 64.31 64.39 64.75 65.25 65.33 65.41 65.37 64.98 64.70 64.26 63.71 63.15 62.98 62.80 62.62 62.33 62.19 62.01 61.72 61.52 61.25 60.87 60.64 60.28 59.82 59.46 59.12 58.58 58.30 58.12 57.94 57.58 57.49 57.22 57.13 56.98 56.63 56.46 56.37 56.31 56.20 56.11 56.11 56.20 55.93
61.72 61.72 61.80 61.88 61.86 61.75 61.83 61.95 62.17 62.37 62.54 62.68 62.89 63.10 63.50 63.65 63.70 63.56 63.58 64.12 64.27 64.19 64.13 64.45 64.79 65.13 65.16 64.44 65.15 65.51 65.36 64.61 64.26 63.73 63.26 63.05 62.89 62.62 62.49 62.17 62.04 61.86 61.68 61.43 61.07 60.98 60.70 60.46 60.13 59.68 59.19 58.66 58.34 58.03 57.86 57.68 57.59 57.41 57.23 57.04 56.86 56.77 56.60 56.33 56.33 56.33 56.46 56.37 56.05
61.41 61.41 61.61 61.61 61.63 61.69 61.97 62.17 62.18 62.10 62.25 62.75 62.76 62.79 62.89 62.87 63.33 63.03 62.59 63.05 63.72 63.95 64.16 64.53 64.70 64.66 64.24 63.31 63.70 64.28 64.53 64.06 63.55 63.23 62.98 62.98 62.78 62.71 62.44 62.35 62.04 61.86 61.77 61.43 61.08 60.80 60.61 60.52 60.37 59.93 59.48 58.84 58.30 57.94 57.67 57.68 57.50 57.37 57.28 57.21 57.10 57.02 56.84 56.32 56.59 56.76 56.84 56.63 56.28
61.33 61.61 61.67 61.75 61.75 62.00 62.17 62.19 62.19 62.07 61.99 61.94 61.85 61.85 62.05 62.46 62.54 62.31 61.96 62.05 62.80 63.40 63.89 63.99 63.90 63.72 63.52 63.02 62.48 62.57 62.95 63.17 62.99 62.89 62.76 62.89 62.78 62.60 62.46 62.35 62.15 62.06 61.90 61.43 60.98 60.72 60.44 60.35 60.26 59.90 59.45 58.90 58.22 57.85 57.58 57.40 57.50 57.37 57.39 57.31 57.21 57.30 57.21 56.91 57.13 57.18 57.18 57.03 56.81
61.37 61.66 61.80 61.80 61.91 61.83 61.63 61.21 61.35 61.31 61.35 61.25 61.28 61.35 61.59 61.97 61.91 61.78 61.65 61.58 61.63 62.39 63.01 62.79 62.60 62.62 62.54 62.12 61.88 61.42 61.37 62.08 62.37 62.51 62.62 62.71 62.62 62.44 62.15 62.19 62.17 62.28 61.92 61.32 60.87 60.62 60.35 60.26 60.09 59.56 58.93 58.46 57.91 57.59 57.50 57.41 57.48 57.39 57.30 57.31 57.21 57.31 57.31 57.58 57.58 57.58 57.58 57.55 57.34
61.23 61.35 61.25 61.25 61.20 61.04 60.74 60.54 60.82 60.88 60.79 60.96 61.10 61.24 61.33 61.36 61.33 61.16 61.13 61.13 61.46 61.97 62.39 62.09 62.00 61.78 61.58 61.52 61.63 61.39 61.31 61.25 61.83 62.10 62.24 62.44 62.22 62.04 61.99 61.99 62.01 62.01 61.74 61.27 60.82 60.46 60.25 59.99 59.74 59.11 58.48 57.94 57.48 57.19 57.19 57.48 57.48 57.39 57.21 57.13 57.09 57.18 57.40 57.65 57.65 57.64 57.76 57.91 57.89
60.67 60.55 60.45 60.50 60.62 60.57 60.60 60.77 60.82 60.85 60.74 60.76 61.01 61.00 60.91 60.92 60.93 60.99 61.16 61.33 61.66 61.75 61.78 61.67 61.41 61.19 60.85 60.82 61.08 61.36 61.43 61.11 61.65 61.92 61.97 62.04 61.88 61.79 61.79 61.70 61.72 61.63 61.36 60.96 60.64 60.37 60.07 59.72 59.38 58.73 58.10 57.49 57.31 57.12 57.31 57.36 57.31 57.21 57.03 56.82 56.82 57.04 57.39 57.65 57.48 57.50 57.65 57.52 57.59
59.92 59.97 60.07 60.25 60.29 60.38 60.59 60.92 60.77 60.60 60.32 60.34 60.61 60.49 60.49 60.59 60.77 60.93 61.19 61.22 61.33 61.13 60.91 60.99 60.82 60.54 60.46 60.40 60.40 60.90 61.30 60.96 61.51 61.51 61.44 61.58 61.54 61.52 61.41 61.25 61.32 61.09 60.87 60.52 60.43 60.25 59.93 59.62 59.26 58.81 58.18 57.58 57.39 57.31 57.18 57.28 57.18 57.09 56.91 56.64 56.73 56.95 57.13 57.21 57.30 57.14 56.82 56.43 55.87
59.56 59.65 59.72 59.87 59.96 59.75 59.57 59.87 60.22 60.14 59.94 59.88 59.99 59.96 60.04 60.25 60.61 60.69 60.87 60.85 60.48 60.42 60.50 60.85 60.75 60.57 60.49 60.54 60.35 60.59 60.81 60.68 60.78 60.71 60.65 61.13 61.43 61.61 61.44 61.17 60.99 60.82 60.52 60.36 60.35 60.28 60.00 59.66 59.30 58.94 58.40 57.82 57.50 57.39 57.27 57.28 57.15 56.97 56.74 56.56 56.47 56.38 56.28 56.14 55.86 55.16 54.36 53.39 52.43
59.46 59.47 59.42 59.37 59.34 59.22 59.13 59.40 59.76 59.85 59.72 59.62 59.53 59.42 59.42 59.25 59.52 59.88 60.26 60.24 60.29 60.44 60.64 60.78 60.39 60.25 60.23 60.32 60.17 60.23 60.25 60.14 59.90 59.80 59.87 60.30 60.86 61.30 61.41 61.25 60.75 60.51 60.45 60.51 59.34 58.55 58.27 58.45 59.03 58.76 58.27 57.92 57.65 57.58 57.63 57.64 57.46 57.01 56.34 55.53 54.98 54.35 53.72 53.22 52.44 51.49 50.45 49.50 48.03
59.22 59.20 58.93 58.96 58.82 58.79 58.89 59.16 59.41 59.50 59.39 59.14 59.10 59.01 58.92 58.77 58.92 59.08 59.41 59.72 59.89 60.05 59.98 59.89 59.62 59.65 59.72 59.66 59.57 59.59 59.55 59.41 59.07 58.94 59.14 59.53 60.01 60.38 60.78 61.08 60.99 61.00 60.42 58.32 51.85 50.04 51.08 53.06 56.02 57.72 58.44 58.12 57.94 57.85 57.63 57.36 56.74 55.66 54.30 52.95 51.74 50.57 49.67 48.77 47.95 46.92 45.93 44.89 44.13
58.98 58.84 58.63 58.55 58.41 58.45 58.55 58.81 59.07 59.20 59.18 58.93 58.76 58.70 58.60 58.64 58.78 58.76 58.86 58.96 58.90 59.08 58.95 58.67 58.38 57.86 57.68 58.56 58.75 58.79 58.81 58.79 58.48 58.35 58.47 58.68 58.96 59.34 59.34 59.19 59.17 58.90 56.50 50.13 46.14 45.33 46.23 46.96 48.59 51.25 54.45 57.36 56.29 55.07 54.18 53.64 52.82 51.96 50.79 49.48 48.54 47.46 46.47 45.43 44.57 43.76 42.90 42.00 41.19
58.71 58.60 58.46 58.32 58.21 58.23 58.27 58.61 58.77 58.79 58.65 58.50 58.46 58.37 58.47 58.54 58.53 58.63 58.47 58.16 57.99 57.80 57.66 57.33 56.99 55.96 55.68 57.88 58.02 58.03 58.00 58.00 57.92 57.94 57.76 57.49 56.91 56.44 56.09 56.08 55.65 54.35 50.94 44.60 43.33 43.33 43.79 44.24 44.60 46.05 48.72 52.46 51.60 50.57 49.58 48.95 48.40 48.00 47.32 46.69 46.06 45.25 44.26 43.05 42.09 41.14 40.32 39.87 39.74
58.57 58.52 58.29 58.31 58.03 58.01 58.15 58.39 58.37 58.41 58.23 58.13 57.94 58.29 58.45 58.04 57.98 57.88 57.51 57.17 56.99 56.83 56.54 56.39 56.33 56.48 56.91 57.70 57.64 57.57 57.57 57.63 57.35 56.82 55.89 54.93 53.94 53.27 52.77 52.42 51.68 49.44 46.23 42.79 42.70 42.79 43.07 43.39 43.75 44.20 44.84 46.01 47.55 47.28 46.38 45.93 45.47 45.20 44.85 44.31 43.72 42.92 42.02 41.11 40.44 39.89 39.39 39.15 39.06
58.56 58.43 58.20 57.94 57.69 57.66 57.73 57.92 57.99 57.90 57.77 57.68 57.81 57.78 57.62 57.12 57.00 56.69 56.40 56.08 55.86 55.92 56.02 56.29 56.28 56.62 56.74 56.65 56.36 56.13 55.47 54.82 54.02 53.29 52.50 51.62 50.82 50.14 49.61 48.80 47.41 45.01 42.43 41.22 41.76 42.03 42.04 42.13 42.09 42.27 42.63 43.36 44.89 45.29 44.93 44.30 43.76 43.31 42.86 42.41 41.87 41.33 40.62 40.08 39.72 39.44 39.03 38.84 38.57
58.51 58.35 58.01 57.73 57.34 57.26 57.38 57.49 57.67 57.67 57.71 57.60 57.43 57.20 56.86 56.47 56.22 55.91 55.79 55.53 55.59 55.58 55.61 55.43 55.14 54.87 54.56 54.42 54.27 53.67 53.03 52.20 51.42 50.79 50.08 49.40 48.53 47.68 46.83 45.88 45.38 43.75 41.68 40.29 40.83 41.10 41.10 41.01 40.83 40.70 40.97 41.70 42.59 43.31 43.58 42.78 42.33 41.78 41.24 41.10 40.97 40.61 40.26 39.90 39.54 39.00 38.58 38.12 37.58
58.46 58.27 58.10 57.72 57.28 57.19 57.31 57.53 57.60 57.61 57.56 57.39 56.93 56.61 56.32 55.96 55.77 55.62 55.58 55.08 54.54 53.91 53.50 53.74 53.44 52.87 52.52 52.63 52.27 51.65 50.97 50.30 49.71 48.91 48.07 47.19 45.66 44.98 44.67 44.21 43.36 42.00 40.56 39.77 40.04 40.22 40.22 40.13 39.95 39.81 39.86 40.40 41.16 41.97 42.33 41.74 41.29 40.89 40.52 40.38 40.16 39.90 39.54 39.09 38.64 38.19 37.65 37.19 36.59
58.35 58.29 58.04 57.72 57.38 57.30 57.27 57.35 57.27 57.20 57.03 56.78 56.59 56.37 56.18 56.04 55.70 55.18 54.50 53.62 52.94 52.47 52.09 52.06 51.62 51.02 50.52 50.26 49.99 49.59 49.15 48.61 48.08 47.23 46.43 45.44 44.41 43.55 42.91 42.32 41.64 40.46 39.44 38.93 39.11 39.11 39.11 39.02 38.88 38.61 38.61 38.88 39.59 40.40 40.85 40.31 39.86 39.54 39.26 39.08 38.82 38.64 38.37 38.00 37.46 37.19 36.84 36.39 35.94
58.31 58.14 57.82 57.35 57.12 56.85 56.81 56.83 56.80 56.82 56.73 56.76 56.41 55.94 55.23 54.71 54.18 53.65 52.90 52.16 51.61 51.11 50.62 49.96 49.45 48.92 48.30 47.85 47.45 47.01 46.56 46.16 45.57 44.77 43.96 43.38 42.85 42.13 41.31 40.44 40.07 39.17 38.24 38.05 37.92 37.92 37.83 37.65 37.51 37.24 37.14 37.23 38.07 38.52 38.53 38.07 37.43 37.01 36.77 36.59 36.74 36.84 36.84 36.84 36.55 36.19 36.01 35.67 35.45
57.78 57.44 56.90 56.58 56.27 56.28 56.43 56.41 56.14 55.73 55.25 54.77 54.49 54.09 53.68 53.18 52.63 52.04 51.27 50.37 50.00 49.56 49.03 48.42 48.03 47.45 47.14 46.74 46.20 45.71 45.08 44.44 44.27 44.05 43.56 42.98 42.18 41.29 40.38 39.41 38.91 38.06 37.32 37.12 36.94 36.85 36.73 36.55 36.37 36.05 35.87 35.68 36.19 36.36 36.10 35.56 35.00 34.59 34.14 34.03 34.12 34.39 34.59 34.93 35.11 35.04 34.95 34.86 34.59
57.12 56.75 56.35 56.05 56.00 55.98 55.73 55.31 54.68 53.94 53.29 52.53 51.99 51.85 51.74 51.46 51.05 50.37 49.52 48.45 48.05 47.79 47.35 46.65 46.21 45.72 45.27 44.96 44.68 44.14 43.46 43.09 43.01 42.65 42.17 41.77 40.88 39.89 38.97 38.27 37.77 37.07 36.52 36.46 36.29 36.20 36.11 35.77 35.59 35.40 35.21 34.87 35.02 34.92 34.40 33.73 33.12 32.67 32.32 32.21 32.21 32.39 32.75 33.11 33.33 33.60 33.65 33.65 33.21
56.75 56.43 56.34 56.41 55.93 55.21 54.39 53.64 53.05 52.43 51.67 50.86 50.28 49.87 49.51 49.19 48.91 48.46 47.88 46.73 46.56 46.12 45.50 44.70 44.43 43.94 43.49 43.03 42.80 42.29 41.85 41.76 41.40 41.13 40.73 40.34 39.59 38.81 37.99 37.46 37.10 36.53 36.06 36.01 35.93 35.77 35.55 35.37 35.10 34.93 34.79 34.78 34.49 33.95 33.19 32.47 31.79 31.34 31.13 30.90 30.81 30.90 31.24 31.42 31.85 32.12 32.39 32.50 32.24
56.87 56.74 56.46 55.98 54.80 53.89 53.05 52.34 51.62 50.77 50.01 49.30 48.80 48.44 48.13 47.81 47.54 47.23 46.78 45.94 45.51 44.67 43.64 43.09 42.68 42.36 41.95 41.80 41.66 41.48 41.31 41.27 40.73 40.37 39.93 39.50 38.86 38.34 37.77 37.29 36.93 36.12 35.46 35.68 35.74 35.50 35.37 35.28 35.03 34.85 34.70 34.64 34.22 33.59 32.83 31.97 31.24 30.82 30.41 30.06 29.95 30.05 30.22 30.20 30.43 30.61 30.86 31.08 31.15
57.26 56.84 56.12 54.81 53.74 52.77 52.01 51.35 50.41 49.52 48.67 48.13 47.81 47.50 47.14 46.69 46.16 45.67 45.01 43.92 43.70 42.81 41.90 41.35 40.97 40.73 40.46 40.38 40.14 40.04 39.96 40.01 39.57 39.29 38.93 38.64 38.31 37.99 37.51 36.98 36.57 36.01 35.49 35.52 35.51 35.49 35.41 35.28 35.12 35.02 34.95 34.72 34.27 33.55 32.69 31.79 31.04 30.29 29.72 29.26 29.13 29.32 29.58 29.39 29.49 29.47 29.61 29.79 29.97
57.05 56.28 55.43 54.26 53.04 52.15 51.13 50.31 49.38 48.57 47.86 47.10 46.56 45.98 45.54 45.26 44.59 44.05 43.43 42.70 42.41 41.57 40.71 39.87 39.30 39.11 38.85 38.60 38.28 37.99 37.80 37.81 37.68 37.54 37.35 37.26 37.06 36.85 36.57 36.35 35.92 35.60 35.29 35.37 35.41 35.47 35.32 35.37 35.12 35.03 34.84 34.51 34.28 33.55 32.56 31.59 30.58 29.75 29.16 28.74 28.47 28.60 28.76 28.85 28.91 28.85 28.93 29.23 29.90
56.71 55.95 55.02 54.09 52.68 51.51 50.37 49.30 48.52 47.81 47.18 46.21 45.20 44.40 43.86 43.49 42.73 42.50 42.25 41.62 41.15 40.44 39.66 38.85 38.36 37.96 37.65 37.08 37.02 36.69 36.45 36.44 36.54 36.28 36.18 36.09 36.15 35.96 35.78 35.82 35.58 35.29 35.11 35.10 35.27 35.29 35.32 35.21 35.12 34.90 34.66 34.33 34.01 33.46 32.56 31.65 30.35 29.44 28.80 28.45 28.04 27.86 27.86 28.03 28.23 28.14 28.09 28.22 28.77
55.67 54.92 54.02 52.99 51.97 50.87 49.65 48.50 47.67 47.00 46.38 45.46 44.37 43.49 42.82 42.20 41.90 41.64 41.30 40.56 39.89 39.24 38.59 37.82 37.39 37.20 36.93 36.23 36.04 35.72 35.46 35.27 35.45 35.64 35.56 35.47 35.56 35.61 35.70 35.65 35.55 35.49 35.31 35.37 35.35 35.32 35.38 35.41 35.37 35.21 34.88 34.45 34.27 33.73 32.83 31.83 30.37 29.19 28.53 28.23 27.93 27.58 27.23 27.17 27.33 27.31 27.17 27.08 27.26
MSLP
1001.88 1002.16 1002.44 1002.72 1003.00 1003.24 1003.44 1003.60 1003.72 1003.84 1003.96 1004.12 1004.28 1004.44 1004.56 1004.64 1004.72 1004.88 1005.00 1005.16 1005.28 1005.40 1005.56 1005.72 1005.88 1006.12 1006.36 1006.56 1006.80 1007.00 1007.24 1007.44 1007.60 1007.80 1008.00 1008.16 1008.28 1008.48 1008.72 1008.92 1009.12 1009.28 1009.48 1009.72 1009.88 1010.12 1010.28 1010.44 1010.68 1010.88 1011.12 1011.28 1011.44 1011.60 1011.84 1012.04 1012.32 1012.56 1012.80 1013.00 1013.08 1013.24 1013.44 1013.72 1013.84 1014.08 1014.40 1014.56 1014.72
1001.88 1002.16 1002.44 1002.72 1003.00 1003.16 1003.32 1003.52 1003.68 1003.76 1003.84 1003.96 1004.12 1004.24 1004.36 1004.48 1004.56 1004.72 1004.84 1005.00 1005.04 1005.16 1005.36 1005.52 1005.72 1005.92 1006.16 1006.32 1006.56 1006.80 1007.00 1007.24 1007.44 1007.64 1007.84 1008.00 1008.12 1008.28 1008.52 1008.72 1008.88 1009.08 1009.28 1009.56 1009.76 1010.00 1010.20 1010.36 1010.56 1010.72 1010.92 1011.12 1011.28 1011.48 1011.60 1011.80 1012.04 1012.36 1012.60 1012.84 1013.00 1013.20 1013.44 1013.72 1013.80 1014.00 1014.28 1014.44 1014.68
1001.92 1002.20 1002.48 1002.76 1002.96 1003.08 1003.24 1003.44 1003.56 1003.64 1003.72 1003.84 1003.92 1004.00 1004.16 1004.28 1004.40 1004.56 1004.68 1004.80 1004.88 1005.00 1005.16 1005.32 1005.52 1005.72 1005.96 1006.16 1006.36 1006.56 1006.76 1007.00 1007.24 1007.44 1007.64 1007.80 1007.92 1008.12 1008.32 1008.56 1008.72 1008.92 1009.16 1009.36 1009.60 1009.84 1010.00 1010.24 1010.40 1010.56 1010.72 1010.96 1011.16 1011.28 1011.44 1011.64 1011.88 1012.16 1012.40 1012.64 1012.92 1013.16 1013.36 1013.60 1013.72 1013.96 1014.16 1014.40 1014.56
1001.96 1002.24 1002.48 1002.72 1002.84 1002.96 1003.12 1003.24 1003.44 1003.56 1003.64 1003.72 1003.80 1003.92 1004.00 1004.12 1004.28 1004.40 1004.52 1004.64 1004.76 1004.88 1005.00 1005.16 1005.36 1005.60 1005.80 1006.00 1006.20 1006.36 1006.52 1006.72 1007.00 1007.24 1007.44 1007.60 1007.72 1007.92 1008.16 1008.32 1008.56 1008.72 1008.96 1009.16 1009.40 1009.60 1009.84 1010.00 1010.28 1010.44 1010.56 1010.72 1010.92 1011.12 1011.28 1011.52 1011.76 1012.00 1012.24 1012.48 1012.76 1013.00 1013.16 1013.36 1013.60 1013.84 1014.12 1014.28 1014.52
1001.96 1002.20 1002.44 1002.60 1002.72 1002.84 1003.00 1003.16 1003.28 1003.44 1003.60 1003.68 1003.76 1003.84 1003.92 1004.00 1004.16 1004.32 1004.48 1004.60 1004.68 1004.72 1004.80 1005.00 1005.24 1005.44 1005.60 1005.88 1006.08 1006.24 1006.40 1006.56 1006.76 1007.00 1007.24 1007.40 1007.56 1007.72 1007.88 1008.12 1008.32 1008.56 1008.76 1009.00 1009.16 1009.36 1009.60 1009.84 1010.12 1010.28 1010.44 1010.56 1010.72 1010.88 1011.08 1011.32 1011.60 1011.88 1012.08 1012.36 1012.60 1012.80 1013.00 1013.20 1013.44 1013.64 1013.92 1014.16 1014.44
1001.96 1002.16 1002.36 1002.52 1002.64 1002.80 1002.92 1003.08 1003.24 1003.40 1003.52 1003.64 1003.72 1003.80 1003.88 1003.96 1004.08 1004.24 1004.40 1004.52 1004.56 1004.56 1004.72 1004.88 1005.12 1005.32 1005.52 1005.72 1005.92 1006.16 1006.28 1006.44 1006.64 1006.84 1007.00 1007.20 1007.36 1007.52 1007.68 1007.88 1008.08 1008.32 1008.56 1008.80 1009.00 1009.20 1009.44 1009.68 1009.92 1010.08 1010.24 1010.44 1010.56 1010.68 1010.92 1011.20 1011.44 1011.68 1011.92 1012.16 1012.40 1012.60 1012.80 1013.04 1013.24 1013.44 1013.72 1014.00 1014.24
1001.84 1002.04 1002.28 1002.44 1002.64 1002.80 1002.92 1003.08 1003.20 1003.36 1003.48 1003.60 1003.72 1003.76 1003.80 1003.84 1004.00 1004.16 1004.28 1004.44 1004.52 1004.56 1004.72 1004.88 1005.08 1005.24 1005.36 1005.48 1005.72 1006.00 1006.24 1006.40 1006.52 1006.68 1006.84 1007.00 1007.16 1007.36 1007.52 1007.72 1007.92 1008.16 1008.36 1008.64 1008.88 1009.12 1009.32 1009.52 1009.72 1009.88 1010.04 1010.24 1010.36 1010.56 1010.80 1011.08 1011.28 1011.48 1011.72 1011.88 1012.16 1012.40 1012.60 1012.80 1013.00 1013.28 1013.52 1013.76 1014.00
1001.72 1001.92 1002.16 1002.40 1002.60 1002.76 1002.88 1003.08 1003.24 1003.40 1003.52 1003.60 1003.64 1003.68 1003.72 1003.80 1003.92 1004.08 1004.20 1004.40 1004.56 1004.68 1004.72 1004.88 1005.00 1005.08 1005.16 1005.28 1005.48 1005.72 1006.00 1006.20 1006.44 1006.56 1006.72 1006.84 1007.00 1007.16 1007.32 1007.52 1007.76 1008.00 1008.20 1008.44 1008.72 1008.92 1009.16 1009.32 1009.48 1009.64 1009.88 1010.04 1010.24 1010.44 1010.64 1010.84 1011.08 1011.28 1011.48 1011.64 1011.88 1012.16 1012.40 1012.56 1012.80 1013.04 1013.28 1013.52 1013.88
1001.80 1001.92 1002.08 1002.28 1002.52 1002.72 1002.88 1003.04 1003.20 1003.40 1003.52 1003.60 1003.68 1003.72 1003.84 1003.88 1003.92 1004.00 1004.16 1004.40 1004.56 1004.68 1004.84 1004.96 1005.00 1005.04 1005.12 1005.20 1005.32 1005.52 1005.76 1006.00 1006.24 1006.40 1006.48 1006.64 1006.84 1007.00 1007.20 1007.36 1007.60 1007.76 1008.00 1008.28 1008.48 1008.68 1008.92 1009.16 1009.28 1009.44 1009.64 1009.88 1010.00 1010.20 1010.44 1010.64 1010.88 1011.12 1011.28 1011.52 1011.72 1011.96 1012.16 1012.36 1012.56 1012.80 1013.04 1013.32 1013.64
1001.80 1001.96 1002.12 1002.28 1002.52 1002.68 1002.84 1003.04 1003.20 1003.40 1003.52 1003.64 1003.76 1003.92 1004.00 1004.00 1003.96 1004.00 1004.12 1004.28 1004.44 1004.64 1004.80 1004.96 1005.00 1005.08 1005.16 1005.24 1005.28 1005.44 1005.60 1005.84 1006.00 1006.16 1006.32 1006.52 1006.68 1006.88 1007.04 1007.24 1007.40 1007.60 1007.84 1008.08 1008.28 1008.48 1008.72 1008.96 1009.12 1009.28 1009.44 1009.60 1009.76 1010.00 1010.28 1010.52 1010.72 1010.88 1011.16 1011.36 1011.52 1011.76 1012.04 1012.28 1012.44 1012.64 1012.88 1013.12 1013.40
1001.76 1001.92 1002.12 1002.32 1002.52 1002.68 1002.88 1003.04 1003.20 1003.36 1003.52 1003.68 1003.84 1003.96 1004.00 1004.00 1004.00 1004.04 1004.12 1004.20 1004.44 1004.60 1004.76 1004.88 1005.00 1005.08 1005.16 1005.28 1005.32 1005.44 1005.56 1005.72 1005.88 1006.00 1006.16 1006.32 1006.52 1006.68 1006.84 1007.00 1007.16 1007.44 1007.60 1007.80 1008.04 1008.28 1008.56 1008.72 1008.92 1009.04 1009.24 1009.44 1009.60 1009.76 1010.00 1010.28 1010.48 1010.72 1010.96 1011.12 1011.28 1011.56 1011.88 1012.16 1012.40 1012.56 1012.72 1012.92 1013.16
1001.76 1001.96 1002.16 1002.32 1002.52 1002.72 1002.88 1003.04 1003.16 1003.32 1003.52 1003.72 1003.80 1003.88 1003.96 1004.00 1004.08 1004.16 1004.24 1004.32 1004.44 1004.60 1004.72 1004.88 1004.96 1005.08 1005.16 1005.24 1005.32 1005.44 1005.48 1005.60 1005.72 1005.88 1006.04 1006.16 1006.32 1006.48 1006.60 1006.80 1007.00 1007.20 1007.40 1007.60 1007.80 1008.04 1008.28 1008.48 1008.64 1008.84 1009.00 1009.24 1009.40 1009.56 1009.72 1009.96 1010.24 1010.52 1010.72 1010.92 1011.16 1011.40 1011.68 1012.00 1012.28 1012.44 1012.56 1012.72 1013.00
1001.88 1002.04 1002.20 1002.40 1002.56 1002.72 1002.88 1003.00 1003.16 1003.32 1003.48 1003.60 1003.68 1003.76 1003.88 1004.00 1004.12 1004.20 1004.28 1004.40 1004.48 1004.56 1004.64 1004.72 1004.88 1004.96 1005.00 1005.04 1005.16 1005.24 1005.40 1005.48 1005.60 1005.76 1005.92 1006.04 1006.20 1006.32 1006.48 1006.64 1006.76 1006.96 1007.16 1007.40 1007.56 1007.76 1008.00 1008.16 1008.36 1008.56 1008.72 1008.96 1009.16 1009.28 1009.44 1009.68 1009.92 1010.20 1010.44 1010.72 1011.00 1011.24 1011.44 1011.68 1012.00 1012.28 1012.44 1012.60 1012.80
1001.96 1002.16 1002.28 1002.44 1002.64 1002.76 1002.92 1003.04 1003.20 1003.28 1003.40 1003.48 1003.60 1003.68 1003.80 1003.92 1004.08 1004.20 1004.28 1004.36 1004.44 1004.44 1004.48 1004.60 1004.72 1004.80 1004.84 1004.88 1004.92 1005.00 1005.16 1005.32 1005.44 1005.60 1005.76 1005.88 1006.00 1006.16 1006.28 1006.40 1006.52 1006.68 1006.88 1007.12 1007.28 1007.48 1007.68 1007.88 1008.08 1008.28 1008.44 1008.68 1008.88 1009.04 1009.24 1009.44 1009.60 1009.84 1010.12 1010.40 1010.72 1011.00 1011.20 1011.44 1011.72 1012.04 1012.28 1012.48 1012.68
1002.04 1002.20 1002.36 1002.52 1002.68 1002.80 1002.92 1003.04 1003.16 1003.28 1003.36 1003.44 1003.52 1003.64 1003.76 1003.88 1004.00 1004.08 1004.16 1004.24 1004.28 1004.28 1004.36 1004.44 1004.52 1004.60 1004.68 1004.72 1004.76 1004.88 1005.00 1005.16 1005.32 1005.48 1005.60 1005.72 1005.88 1006.00 1006.12 1006.20 1006.32 1006.48 1006.64 1006.88 1007.00 1007.20 1007.40 1007.60 1007.84 1008.00 1008.20 1008.40 1008.56 1008.84 1009.04 1009.20 1009.36 1009.56 1009.76 1010.04 1010.32 1010.64 1010.92 1011.20 1011.52 1011.88 1012.12 1012.32 1012.56
1002.08 1002.24 1002.40 1002.56 1002.68 1002.76 1002.88 1003.00 1003.08 1003.16 1003.28 1003.32 1003.44 1003.56 1003.68 1003.72 1003.76 1003.84 1003.96 1004.04 1004.08 1004.16 1004.24 1004.28 1004.32 1004.40 1004.48 1004.60 1004.68 1004.72 1004.88 1005.04 1005.20 1005.32 1005.44 1005.60 1005.68 1005.84 1005.96 1006.04 1006.16 1006.32 1006.44 1006.64 1006.80 1006.92 1007.12 1007.32 1007.56 1007.76 1007.96 1008.16 1008.36 1008.56 1008.84 1009.00 1009.16 1009.36 1009.60 1009.80 1010.04 1010.36 1010.68 1010.96 1011.32 1011.64 1011.96 1012.20 1012.44
1002.08 1002.24 1002.40 1002.52 1002.68 1002.76 1002.84 1002.88 1002.92 1003.00 1003.16 1003.16 1003.20 1003.28 1003.40 1003.44 1003.48 1003.60 1003.80 1003.88 1003.92 1004.00 1004.12 1004.16 1004.20 1004.28 1004.36 1004.48 1004.60 1004.68 1004.80 1005.00 1005.12 1005.24 1005.32 1005.40 1005.52 1005.64 1005.76 1005.88 1006.00 1006.16 1006.28 1006.48 1006.60 1006.72 1006.88 1007.12 1007.32 1007.56 1007.72 1007.96 1008.16 1008.40 1008.64 1008.88 1009.12 1009.28 1009.52 1009.72 1009.96 1010.24 1010.52 1010.88 1011.20 1011.56 1011.88 1012.16 1012.40
1002.04 1002.20 1002.36 1002.52 1002.64 1002.72 1002.76 1002.80 1002.84 1002.88 1003.00 1003.12 1003.16 1003.24 1003.28 1003.28 1003.44 1003.60 1003.76 1003.88 1003.88 1003.96 1004.00 1004.12 1004.16 1004.28 1004.32 1004.48 1004.60 1004.72 1004.88 1004.96 1005.04 1005.12 1005.16 1005.28 1005.36 1005.48 1005.60 1005.72 1005.88 1006.00 1006.16 1006.28 1006.44 1006.56 1006.72 1006.96 1007.16 1007.44 1007.64 1007.88 1008.08 1008.28 1008.56 1008.76 1009.00 1009.28 1009.48 1009.72 1009.96 1010.20 1010.48 1010.80 1011.12 1011.44 1011.80 1012.12 1012.36
1002.00 1002.16 1002.28 1002.44 1002.52 1002.60 1002.72 1002.84 1002.88 1002.96 1003.08 1003.24 1003.32 1003.44 1003.44 1003.44 1003.60 1003.72 1003.84 1003.92 1003.96 1004.00 1004.00 1004.16 1004.24 1004.28 1004.40 1004.48 1004.64 1004.84 1004.96 1005.00 1005.00 1005.04 1005.12 1005.20 1005.28 1005.36 1005.44 1005.60 1005.68 1005.80 1005.96 1006.12 1006.28 1006.44 1006.64 1006.88 1007.08 1007.36 1007.60 1007.84 1008.08 1008.28 1008.48 1008.72 1008.96 1009.20 1009.44 1009.72 1009.96 1010.20 1010.48 1010.76 1011.04 1011.40 1011.72 1012.00 1012.28
1001.96 1002.12 1002.24 1002.32 1002.48 1002.64 1002.80 1002.92 1003.00 1003.12 1003.24 1003.36 1003.44 1003.56 1003.60 1003.64 1003.72 1003.80 1003.88 1004.00 1004.00 1004.00 1004.04 1004.16 1004.24 1004.32 1004.44 1004.52 1004.64 1004.80 1004.96 1005.00 1005.00 1005.04 1005.08 1005.16 1005.20 1005.28 1005.36 1005.44 1005.56 1005.64 1005.80 1005.96 1006.16 1006.36 1006.56 1006.80 1007.04 1007.28 1007.56 1007.80 1008.04 1008.28 1008.48 1008.72 1008.88 1009.16 1009.44 1009.72 1009.92 1010.16 1010.36 1010.64 1011.00 1011.36 1011.64 1011.88 1012.16
1001.92 1002.12 1002.28 1002.44 1002.60 1002.76 1002.92 1003.04 1003.16 1003.24 1003.32 1003.44 1003.52 1003.60 1003.72 1003.80 1003.84 1003.88 1003.88 1004.00 1004.00 1004.04 1004.16 1004.20 1004.28 1004.32 1004.44 1004.48 1004.56 1004.72 1004.88 1005.00 1005.00 1005.04 1005.08 1005.12 1005.16 1005.20 1005.28 1005.40 1005.44 1005.60 1005.72 1005.88 1006.00 1006.24 1006.52 1006.76 1006.96 1007.20 1007.48 1007.76 1008.00 1008.20 1008.44 1008.64 1008.88 1009.16 1009.44 1009.72 1009.92 1010.08 1010.28 1010.60 1011.00 1011.36 1011.64 1011.88 1012.08
1002.08 1002.28 1002.44 1002.56 1002.72 1002.88 1003.00 1003.12 1003.24 1003.36 1003.44 1003.56 1003.60 1003.72 1003.80 1003.88 1003.88 1003.96 1004.00 1004.04 1004.08 1004.16 1004.20 1004.24 1004.28 1004.36 1004.40 1004.44 1004.56 1004.68 1004.84 1004.96 1005.00 1005.00 1005.00 1005.00 1005.12 1005.16 1005.24 1005.28 1005.44 1005.52 1005.64 1005.80 1006.00 1006.24 1006.48 1006.72 1006.92 1007.16 1007.44 1007.72 1007.92 1008.16 1008.36 1008.56 1008.84 1009.16 1009.44 1009.76 1010.00 1010.16 1010.36 1010.72 1011.12 1011.44 1011.68 1011.88 1012.12
1002.28 1002.44 1002.56 1002.72 1002.88 1003.00 1003.16 1003.28 1003.40 1003.48 1003.60 1003.64 1003.72 1003.84 1003.92 1004.00 1004.00 1004.08 1004.12 1004.20 1004.20 1004.28 1004.28 1004.32 1004.36 1004.40 1004.44 1004.48 1004.56 1004.72 1004.84 1004.92 1004.96 1004.96 1005.00 1005.00 1005.04 1005.12 1005.20 1005.28 1005.40 1005.48 1005.60 1005.76 1006.00 1006.20 1006.44 1006.72 1006.92 1007.16 1007.44 1007.68 1007.88 1008.12 1008.32 1008.48 1008.76 1009.08 1009.44 1009.72 1010.00 1010.24 1010.56 1010.88 1011.24 1011.60 1011.88 1012.12 1012.32
1002.36 1002.52 1002.68 1002.84 1003.00 1003.16 1003.28 1003.44 1003.56 1003.60 1003.72 1003.76 1003.88 1003.96 1004.04 1004.16 1004.20 1004.24 1004.28 1004.32 1004.36 1004.44 1004.44 1004.48 1004.48 1004.52 1004.56 1004.60 1004.64 1004.76 1004.88 1004.92 1004.96 1005.00 1005.04 1005.08 1005.12 1005.16 1005.16 1005.28 1005.40 1005.48 1005.60 1005.76 1006.00 1006.24 1006.44 1006.68 1006.92 1007.16 1007.44 1007.72 1007.92 1008.16 1008.32 1008.48 1008.72 1009.04 1009.40 1009.72 1010.04 1010.44 1010.84 1011.16 1011.48 1011.84 1012.20 1012.52 1012.76
1002.44 1002.56 1002.76 1002.92 1003.12 1003.28 1003.44 1003.60 1003.68 1003.76 1003.84 1003.88 1004.00 1004.04 1004.16 1004.24 1004.28 1004.36 1004.44 1004.44 1004.52 1004.56 1004.64 1004.68 1004.68 1004.68 1004.72 1004.76 1004.80 1004.88 1004.96 1005.00 1005.08 1005.16 1005.20 1005.28 1005.28 1005.32 1005.36 1005.40 1005.52 1005.60 1005.72 1006.00 1006.28 1006.48 1006.60 1006.76 1006.92 1007.16 1007.44 1007.72 1008.00 1008.24 1008.44 1008.64 1008.88 1009.20 1009.56 1009.88 1010.28 1010.72 1011.16 1011.60 1011.96 1012.28 1012.60 1012.92 1013.20
1002.48 1002.64 1002.84 1003.00 1003.20 1003.36 1003.52 1003.68 1003.76 1003.88 1003.92 1004.00 1004.00 1004.12 1004.20 1004.28 1004.36 1004.44 1004.48 1004.56 1004.64 1004.72 1004.76 1004.76 1004.84 1004.88 1004.92 1005.00 1005.00 1005.08 1005.16 1005.20 1005.28 1005.36 1005.44 1005.44 1005.52 1005.60 1005.68 1005.76 1005.88 1005.96 1006.16 1006.44 1006.56 1006.72 1006.88 1007.00 1007.16 1007.36 1007.60 1007.88 1008.16 1008.48 1008.80 1009.08 1009.28 1009.60 1009.88 1010.16 1010.56 1010.96 1011.40 1011.88 1012.32 1012.72 1013.08 1013.32 1013.60
1002.56 1002.72 1002.92 1003.16 1003.28 1003.44 1003.60 1003.72 1003.84 1003.88 1003.96 1004.00 1004.04 1004.12 1004.20 1004.32 1004.44 1004.48 1004.56 1004.68 1004.80 1004.88 1004.92 1005.00 1005.04 1005.16 1005.20 1005.16 1005.24 1005.28 1005.36 1005.44 1005.48 1005.56 1005.60 1005.72 1005.80 1005.96 1006.08 1006.20 1006.32 1006.48 1006.64 1006.80 1006.84 1007.00 1007.16 1007.32 1007.52 1007.72 1007.92 1008.24 1008.56 1008.88 1009.24 1009.60 1009.88 1010.08 1010.32 1010.60 1010.88 1011.16 1011.60 1012.00 1012.56 1013.00 1013.44 1013.72 1013.92
1002.64 1002.84 1003.00 1003.20 1003.36 1003.52 1003.64 1003.72 1003.88 1003.92 1003.96 1004.00 1004.08 1004.16 1004.24 1004.40 1004.48 1004.56 1004.72 1004.84 1004.92 1005.00 1005.16 1005.24 1005.32 1005.40 1005.44 1005.40 1005.44 1005.44 1005.56 1005.64 1005.72 1005.84 1005.96 1006.08 1006.24 1006.36 1006.52 1006.68 1006.88 1007.00 1007.12 1007.08 1007.16 1007.28 1007.48 1007.64 1007.84 1008.04 1008.32 1008.68 1009.00 1009.40 1009.72 1010.08 1010.44 1010.72 1010.92 1011.16 1011.40 1011.64 1011.92 1012.28 1012.68 1013.12 1013.56 1013.92 1014.12
1002.68 1002.88 1003.08 1003.28 1003.44 1003.60 1003.68 1003.76 1003.88 1003.96 1004.00 1004.08 1004.16 1004.28 1004.40 1004.56 1004.64 1004.76 1004.88 1005.00 1005.16 1005.24 1005.32 1005.44 1005.52 1005.60 1005.64 1005.72 1005.80 1005.88 1006.00 1006.12 1006.20 1006.32 1006.44 1006.60 1006.80 1007.00 1007.16 1007.32 1007.52 1007.60 1007.60 1007.48 1007.52 1007.68 1007.88 1008.04 1008.24 1008.44 1008.72 1009.00 1009.40 1009.84 1010.24 1010.56 1010.88 1011.20 1011.52 1011.80 1012.00 1012.24 1012.44 1012.64 1012.88 1013.28 1013.64 1013.96 1014.20
1002.80 1002.96 1003.16 1003.32 1003.52 1003.68 1003.72 1003.80 1003.92 1004.00 1004.08 1004.16 1004.28 1004.44 1004.56 1004.72 1004.84 1004.96 1005.08 1005.20 1005.36 1005.48 1005.60 1005.72 1005.84 1005.92 1006.00 1006.16 1006.24 1006.36 1006.52 1006.60 1006.68 1006.80 1006.96 1007.16 1007.36 1007.60 1007.72 1007.88 1008.08 1008.16 1008.12 1007.92 1007.96 1008.12 1008.28 1008.44 1008.64 1008.88 1009.12 1009.40 1009.76 1010.20 1010.64 1011.00 1011.40 1011.72 1012.04 1012.32 1012.56 1012.80 1012.96 1013.12 1013.32 1013.60 1013.84 1014.08 1014.32
1002.92 1003.00 1003.16 1003.40 1003.60 1003.72 1003.80 1003.88 1004.00 1004.12 1004.20 1004.28 1004.44 1004.56 1004.72 1004.88 1005.00 1005.16 1005.32 1005.52 1005.72 1005.88 1005.96 1006.04 1006.12 1006.28 1006.44 1006.56 1006.68 1006.76 1006.92 1007.08 1007.20 1007.32 1007.44 1007.64 1007.88 1008.16 1008.36 1008.56 1008.72 1008.76 1008.60 1008.36 1008.36 1008.52 1008.72 1008.92 1009.12 1009.28 1009.48 1009.76 1010.12 1010.56 1011.00 1011.44 1011.80 1012.16 1012.48 1012.80 1013.04 1013.28 1013.52 1013.72 1013.92 1014.08 1014.20 1014.36 1014.48
1003.04 1003.12 1003.28 1003.44 1003.64 1003.76 1003.88 1004.00 1004.12 1004.24 1004.36 1004.48 1004.60 1004.72 1004.88 1005.08 1005.28 1005.52 1005.72 1005.92 1006.08 1006.20 1006.28 1006.40 1006.56 1006.72 1006.88 1007.00 1007.12 1007.20 1007.36 1007.52 1007.64 1007.80 1007.96 1008.12 1008.36 1008.60 1008.88 1009.12 1009.32 1009.36 1009.16 1008.88 1008.80 1008.96 1009.20 1009.44 1009.60 1009.72 1009.96 1010.20 1010.56 1011.00 1011.44 1011.88 1012.28 1012.64 1013.00 1013.28 1013.56 1013.80 1014.04 1014.28 1014.48 1014.60 1014.72 1014.80 1014.84
1003.16 1003.28 1003.48 1003.60 1003.76 1003.92 1004.04 1004.20 1004.32 1004.44 1004.56 1004.72 1004.88 1005.00 1005.24 1005.48 1005.72 1005.92 1006.12 1006.28 1006.40 1006.56 1006.72 1006.88 1007.00 1007.16 1007.28 1007.44 1007.60 1007.72 1007.88 1008.04 1008.24 1008.36 1008.48 1008.64 1008.84 1009.00 1009.28 1009.60 1009.88 1010.00 1009.76 1009.36 1009.28 1009.44 1009.64 1009.88 1010.00 1010.20 1010.44 1010.68 1011.08 1011.52 1011.96 1012.32 1012.76 1013.16 1013.52 1013.84 1014.12 1014.36 1014.56 1014.76 1014.92 1015.08 1015.16 1015.28 1015.32
1003.36 1003.52 1003.72 1003.88 1004.00 1004.12 1004.28 1004.44 1004.56 1004.76 1004.96 1005.12 1005.28 1005.44 1005.64 1005.84 1006.00 1006.24 1006.44 1006.64 1006.80 1006.96 1007.16 1007.32 1007.48 1007.64 1007.80 1007.92 1008.04 1008.16 1008.36 1008.56 1008.68 1008.84 1008.96 1009.08 1009.20 1009.40 1009.68 1010.08 1010.44 1010.56 1010.36 1009.92 1009.80 1009.88 1010.08 1010.28 1010.44 1010.64 1010.88 1011.20 1011.60 1012.08 1012.48 1012.88 1013.28 1013.64 1014.00 1014.36 1014.64 1014.88 1015.12 1015.28 1015.44 1015.52 1015.60 1015.72 1015.88
1003.52 1003.72 1003.88 1004.00 1004.16 1004.32 1004.52 1004.76 1004.96 1005.16 1005.36 1005.52 1005.72 1005.88 1006.04 1006.20 1006.40 1006.56 1006.80 1007.00 1007.16 1007.36 1007.60 1007.84 1008.00 1008.16 1008.28 1008.44 1008.56 1008.72 1008.84 1009.00 1009.16 1009.32 1009.44 1009.60 1009.64 1009.80 1010.16 1010.56 1010.92 1011.08 1010.92 1010.56 1010.32 1010.36 1010.52 1010.68 1010.84 1011.00 1011.28 1011.64 1012.12 1012.56 1012.96 1013.28 1013.72 1014.16 1014.48 1014.80 1015.12 1015.40 1015.60 1015.84 1015.96 1016.04 1016.16 1016.28 1016.56
1003.68 1003.84 1004.00 1004.16 1004.40 1004.64 1004.88 1005.12 1005.28 1005.48 1005.68 1005.88 1006.08 1006.28 1006.44 1006.68 1006.88 1007.00 1007.20 1007.36 1007.52 1007.76 1008.04 1008.28 1008.44 1008.56 1008.76 1008.92 1009.08 1009.24 1009.36 1009.48 1009.64 1009.80 1010.00 1010.08 1010.12 1010.28 1010.56 1011.00 1011.32 1011.52 1011.44 1011.16 1010.96 1010.88 1010.96 1011.12 1011.20 1011.32 1011.60 1012.00 1012.56 1013.04 1013.44 1013.80 1014.24 1014.64 1014.92 1015.20 1015.60 1015.92 1016.16 1016.32 1016.52 1016.60 1016.72 1016.92 1017.12
1003.76 1003.96 1004.16 1004.36 1004.68 1004.92 1005.16 1005.40 1005.60 1005.80 1006.00 1006.24 1006.44 1006.64 1006.88 1007.08 1007.28 1007.44 1007.60 1007.72 1007.88 1008.16 1008.44 1008.68 1008.88 1009.04 1009.20 1009.32 1009.52 1009.72 1009.88 1010.00 1010.08 1010.24 1010.40 1010.52 1010.56 1010.72 1010.96 1011.28 1011.68 1011.92 1011.96 1011.80 1011.60 1011.44 1011.44 1011.52 1011.56 1011.60 1011.88 1012.32 1012.88 1013.40 1013.80 1014.20 1014.64 1015.00 1015.32 1015.64 1016.00 1016.36 1016.60 1016.80 1017.00 1017.12 1017.28 1017.48 1017.72
1003.88 1004.12 1004.36 1004.60 1004.88 1005.20 1005.44 1005.68 1005.88 1006.12 1006.32 1006.56 1006.80 1007.00 1007.20 1007.44 1007.68 1007.88 1008.04 1008.16 1008.28 1008.56 1008.88 1009.12 1009.32 1009.52 1009.68 1009.80 1009.96 1010.16 1010.40 1010.52 1010.60 1010.72 1010.84 1011.00 1011.04 1011.16 1011.32 1011.60 1012.00 1012.28 1012.40 1012.32 1012.16 1012.00 1011.96 1011.96 1011.96 1011.96 1012.16 1012.56 1013.12 1013.60 1014.04 1014.48 1014.88 1015.28 1015.64 1016.00 1016.44 1016.72 1017.00 1017.24 1017.48 1017.72 1017.96 1018.20 1018.36
1004.08 1004.28 1004.56 1004.80 1005.12 1005.44 1005.72 1006.00 1006.20 1006.44 1006.68 1006.88 1007.16 1007.36 1007.60 1007.80 1008.08 1008.32 1008.48 1008.60 1008.72 1009.00 1009.24 1009.52 1009.76 1010.00 1010.16 1010.28 1010.44 1010.64 1010.88 1011.12 1011.16 1011.24 1011.32 1011.52 1011.64 1011.68 1011.72 1012.00 1012.32 1012.64 1012.76 1012.80 1012.68 1012.52 1012.44 1012.40 1012.40 1012.44 1012.56 1012.88 1013.32 1013.80 1014.24 1014.68 1015.12 1015.56 1015.92 1016.32 1016.72 1017.16 1017.48 1017.76 1018.08 1018.36 1018.64 1018.84 1018.84
1004.28 1004.52 1004.76 1005.00 1005.36 1005.64 1005.96 1006.24 1006.48 1006.72 1006.96 1007.16 1007.44 1007.68 1007.96 1008.20 1008.48 1008.72 1008.88 1009.04 1009.24 1009.44 1009.64 1009.92 1010.24 1010.44 1010.64 1010.72 1010.80 1010.96 1011.24 1011.52 1011.68 1011.76 1011.88 1012.00 1012.12 1012.16 1012.20 1012.36 1012.68 1012.96 1013.12 1013.16 1013.12 1013.00 1012.88 1012.84 1012.84 1012.84 1012.96 1013.24 1013.60 1014.00 1014.40 1014.80 1015.28 1015.72 1016.20 1016.64 1017.04 1017.52 1017.96 1018.32 1018.56 1018.80 1018.96 1019.00 1018.88
1004.52 1004.76 1005.00 1005.28 1005.60 1005.88 1006.16 1006.48 1006.76 1007.04 1007.28 1007.48 1007.72 1008.00 1008.28 1008.52 1008.72 1008.96 1009.16 1009.40 1009.64 1009.84 1010.08 1010.40 1010.60 1010.80 1010.96 1011.04 1011.16 1011.28 1011.56 1011.84 1012.08 1012.28 1012.32 1012.40 1012.52 1012.56 1012.64 1012.72 1012.96 1013.20 1013.40 1013.48 1013.48 1013.44 1013.36 1013.28 1013.28 1013.24 1013.32 1013.56 1013.88 1014.24 1014.56 1014.88 1015.40 1015.92 1016.44 1016.92 1017.28 1017.72 1018.12 1018.48 1018.72 1018.80 1018.84 1018.84 1018.84
Wind_Speed
11 10 9 8 8 8 8 7 7 7 7 8 8 8 8 8 8 7 7 7 7 7 7 8 8 9 11 14 15 15 15 15 15 15 15 16 16 16 15 14 14 15 15 14 14 14 14 14 12 10 8 8 9 10 10 10 12 12 12 12 11 12 13 14 14 14 14 13 10
12 11 10 8 8 8 7 7 7 7 7 7 8 8 8 8 7 7 7 8 7 7 7 7 8 10 12 14 15 16 16 16 16 16 16 17 17 17 16 14 15 15 15 15 15 13 12 13 12 10 8 8 9 9 10 10 12 13 13 14 11 10 11 12 13 14 14 13 10
11 11 10 10 10 9 8 7 8 8 9 8 8 8 8 7 7 7 7 7 8 7 7 7 8 10 12 14 14 15 15 16 16 16 16 16 17 18 17 14 15 15 15 15 15 13 12 13 11 10 8 8 10 9 9 10 11 12 13 15 11 9 9 9 11 12 11 10 10
12 11 11 11 12 12 10 8 9 10 9 8 8 8 8 7 7 7 7 8 8 8 8 7 8 9 11 12 13 14 15 16 17 16 16 16 17 18 18 16 16 15 15 15 16 15 15 15 11 9 9 10 11 10 9 9 11 11 11 12 10 9 9 9 10 10 9 9 10
12 12 11 12 13 13 11 9 10 10 9 7 7 7 7 6 6 7 7 7 8 8 9 9 8 9 10 11 13 14 15 16 16 15 15 16 17 18 19 18 17 16 15 16 17 17 17 17 11 9 9 11 10 10 10 11 12 11 10 9 9 9 10 10 9 9 9 9 9
13 12 12 11 13 12 10 9 10 10 9 8 8 8 7 7 7 7 8 7 8 9 10 10 9 9 10 12 13 13 14 14 14 14 15 16 16 17 18 19 18 16 15 16 17 17 17 17 11 9 9 9 9 10 11 12 12 12 11 9 9 9 9 10 10 10 10 10 10
13 13 13 12 12 11 10 10 9 9 9 8 9 10 10 8 8 9 9 8 8 8 8 8 9 10 11 12 12 13 13 13 13 15 15 15 16 16 17 18 17 16 16 16 16 16 15 15 10 9 8 8 8 10 13 13 12 12 12 11 10 9 10 11 10 10 12 14 14
12 13 13 12 12 12 11 11 9 8 7 7 9 11 11 10 11 10 10 9 8 7 7 6 9 10 11 12 12 12 13 13 14 14 15 15 16 17 17 17 17 17 16 16 16 16 15 13 10 9 9 9 8 10 13 16 15 15 14 13 11 10 11 11 11 12 13 17 17
10 11 12 12 11 11 12 11 9 8 7 7 8 10 11 11 11 11 10 8 8 7 7 7 10 11 12 12 12 12 12 13 14 15 15 15 16 16 17 16 17 17 16 15 15 16 16 13 10 10 9 9 9 10 13 17 18 17 16 13 12 12 12 12 13 14 15 18 18
10 10 10 10 10 11 11 10 9 9 8 8 8 9 10 10 9 9 8 7 8 8 8 9 10 11 12 12 11 11 11 12 13 14 15 14 15 15 16 15 16 16 15 14 14 15 16 13 11 11 10 10 12 13 15 18 19 19 16 12 13 15 15 14 16 17 17 18 19
11 10 9 8 9 9 9 9 9 8 8 8 9 10 10 8 8 8 8 7 8 9 9 9 10 11 11 11 10 10 10 10 11 12 14 14 15 15 15 15 15 16 15 15 14 13 13 12 12 13 13 12 14 15 17 19 20 20 18 13 15 17 18 17 17 17 17 19 20
10 9 8 8 8 8 8 8 7 7 8 9 10 9 8 7 7 7 7 8 8 9 10 10 10 10 11 10 10 11 11 11 11 12 13 14 15 16 16 16 16 16 16 16 15 13 12 13 14 15 15 15 13 14 16 20 21 20 19 17 18 18 19 20 18 16 16 18 20
8 8 7 7 7 7 7 7 6 6 7 9 8 8 7 7 7 7 8 8 9 9 9 9 10 10 10 11 11 11 11 11 12 12 12 14 15 16 17 17 17 17 17 16 15 13 13 14 16 17 17 16 14 14 16 20 21 21 20 19 19 19 19 21 20 18 17 18 19
8 7 7 7 7 6 6 6 5 5 6 7 7 7 7 7 7 7 8 9 10 10 9 9 9 9 10 11 11 11 11 11 12 12 13 13 14 15 16 17 17 17 16 15 15 15 16 15 17 17 17 18 16 16 17 20 20 21 21 21 20 20 20 21 21 19 19 20 20
8 7 7 7 7 6 6 6 5 5 5 6 6 6 6 7 7 8 9 10 10 10 10 9 9 9 10 10 10 10 11 11 12 12 13 13 14 15 15 16 16 16 16 15 15 16 17 17 18 17 17 18 18 18 18 20 20 20 21 21 21 20 20 21 20 20 19 20 19
8 8 7 7 7 7 6 6 5 5 6 6 7 7 7 8 8 8 9 10 9 9 9 9 9 8 9 9 9 9 9 10 11 12 12 13 13 14 14 15 15 16 16 16 16 16 17 17 17 17 17 18 18 18 19 19 20 20 20 20 20 20 20 20 20 19 18 19 18
8 8 8 7 7 7 7 6 6 6 6 7 7 7 7 8 7 7 7 8 7 8 8 9 8 8 7 7 8 8 8 9 10 11 11 12 13 13 13 14 14 15 16 16 16 16 17 17 16 16 17 17 17 18 18 19 18 18 18 18 18 18 18 18 18 17 17 17 17
8 8 8 8 7 7 7 6 5 5 5 5 5 6 6 6 5 5 5 6 7 7 8 8 8 7 7 7 7 7 7 8 9 10 11 11 12 12 13 13 14 14 15 15 15 15 16 17 16 15 15 15 15 16 17 18 17 17 17 16 17 17 17 17 17 16 16 16 16
8 8 8 7 7 6 5 5 4 4 4 4 4 4 4 4 4 5 5 6 6 7 7 7 7 7 7 7 7 6 6 7 8 9 10 10 11 11 12 13 13 14 14 14 14 14 15 16 15 15 14 14 14 15 15 16 16 16 16 16 16 17 17 18 17 16 15 16 15
7 7 6 6 6 5 5 4 4 4 4 4 4 4 4 4 4 5 5 6 6 6 6 6 6 6 6 7 6 6 5 5 7 8 8 9 9 10 11 12 13 14 14 14 14 14 14 14 14 14 14 14 14 15 15 15 15 16 16 15 16 17 18 18 17 16 15 15 15
6 6 6 5 5 5 5 5 5 4 5 4 5 5 5 5 5 5 6 6 5 5 5 5 5 5 5 5 6 5 5 4 5 6 6 7 8 9 10 10 12 13 13 13 13 14 14 14 14 14 14 14 15 15 15 14 15 16 16 14 15 16 17 17 16 15 15 14 14
6 6 6 6 6 6 5 5 5 5 5 5 5 5 5 5 5 5 5 5 4 4 4 4 4 4 4 4 4 4 4 3 4 4 4 5 6 7 8 9 10 12 12 13 13 13 14 15 15 15 15 14 15 15 15 14 15 16 16 15 16 16 16 16 15 14 13 12 12
7 7 6 6 6 6 6 5 5 5 5 5 6 6 5 5 5 4 4 4 4 3 3 2 2 2 2 3 3 3 3 3 3 3 3 3 4 6 7 8 9 11 11 11 11 13 14 14 14 15 14 14 15 15 15 14 15 15 16 16 16 15 15 14 13 12 12 11 11
7 7 6 6 6 6 6 5 5 5 5 6 6 6 6 5 5 4 4 4 4 3 3 2 2 2 2 2 2 3 3 3 3 2 1 1 2 4 6 7 9 10 10 8 9 10 11 11 13 13 13 13 14 14 14 13 13 14 14 15 14 14 13 12 13 12 12 12 12
7 7 7 7 7 7 6 6 5 5 5 6 6 6 6 6 5 5 4 4 4 4 3 3 3 2 2 2 2 2 3 3 3 3 2 2 1 2 3 4 6 6 6 5 7 8 8 8 9 10 11 11 11 11 10 10 11 11 12 13 14 14 13 13 13 13 13 13 13
7 8 8 8 7 7 7 6 6 6 6 6 6 7 6 6 5 5 5 5 5 5 4 4 4 3 3 3 3 3 3 3 3 4 4 3 4 5 5 4 3 3 3 5 8 9 9 8 7 7 7 7 7 7 7 7 9 11 13 14 14 15 15 14 14 13 13 13 15
7 8 8 8 8 7 7 7 6 6 6 6 7 7 7 6 5 5 6 6 6 6 6 5 5 4 3 3 4 4 4 4 4 5 6 6 7 7 7 6 6 5 5 9 13 15 15 15 13 11 10 9 9 8 8 9 10 11 13 13 14 15 16 17 16 15 14 14 15
8 8 8 8 8 8 7 7 7 7 7 7 7 7 7 6 6 6 6 7 7 6 6 5 5 4 3 3 4 5 6 6 6 7 8 9 9 9 9 8 7 7 8 13 17 18 19 19 18 17 15 12 11 11 11 11 11 11 11 11 12 14 15 16 16 16 15 14 14
8 8 8 8 8 7 7 7 7 7 7 7 7 7 7 7 7 7 7 7 7 7 6 5 4 4 5 6 7 8 9 9 9 9 10 12 12 11 11 10 9 10 13 17 20 20 20 21 21 20 18 15 12 10 10 10 10 10 9 9 10 11 13 13 14 14 14 14 13
8 8 8 8 8 7 7 7 7 7 7 7 7 7 8 8 8 8 8 8 8 7 7 6 6 7 8 8 9 9 10 10 10 11 12 13 13 12 12 11 11 11 14 19 21 22 22 22 22 21 20 18 15 12 11 10 10 10 10 9 10 11 12 13 14 14 13 12 13
7 8 9 9 8 8 7 7 7 8 7 7 8 8 8 8 9 9 9 9 9 9 9 9 10 10 10 10 10 10 11 11 11 12 13 14 14 14 14 13 12 13 15 21 23 24 24 23 23 22 21 20 16 13 12 12 12 11 11 11 12 12 12 12 12 12 12 13 13
7 8 8 8 8 8 8 8 8 8 8 8 8 9 9 10 10 10 10 10 10 10 11 11 12 12 12 12 12 12 12 12 12 12 13 14 15 15 15 14 13 13 16 22 24 25 25 25 24 24 23 21 18 16 15 14 13 13 13 14 14 13 12 10 11 12 12 12 12
7 7 8 8 8 8 8 8 8 8 9 9 9 10 11 12 12 12 11 11 11 11 12 12 12 12 12 13 13 13 14 13 14 14 14 15 15 16 15 14 12 13 16 22 25 26 26 26 26 25 24 22 19 17 16 15 14 13 13 14 14 14 13 13 12 12 12 12 12
7 8 8 8 8 8 9 9 10 10 10 11 11 12 12 12 12 12 11 11 11 11 12 12 12 12 12 12 13 13 13 12 13 14 15 15 16 16 15 13 10 12 16 22 25 27 27 27 27 26 25 22 18 17 17 17 15 14 14 15 15 14 14 14 13 13 13 13 12
8 8 8 8 9 9 10 11 11 12 12 12 12 12 12 12 12 12 12 11 12 12 12 12 12 12 13 13 13 13 14 14 14 14 15 15 16 17 17 15 13 13 16 21 24 26 27 27 27 26 24 21 17 16 17 18 17 17 17 17 16 16 15 14 13 13 13 13 13
8 8 9 9 10 11 12 12 12 12 13 13 13 12 12 12 12 11 11 12 13 13 13 13 13 13 13 14 13 13 14 14 15 15 15 15 17 18 18 17 15 15 16 19 23 25 26 26 26 25 23 19 16 15 15 16 16 17 18 18 17 17 16 15 14 13 13 12 12
8 9 10 11 12 12 12 12 13 13 13 13 13 12 12 12 11 11 11 12 13 14 13 13 13 14 14 14 14 14 14 14 14 15 14 14 16 17 18 17 16 15 15 17 20 22 24 24 24 24 21 18 16 15 15 14 14 15 16 17 17 16 15 14 14 14 13 12 11
9 10 12 13 13 13 13 12 13 13 13 13 12 12 12 12 11 10 10 11 13 13 14 13 14 14 14 14 15 15 15 14 14 14 14 14 15 16 17 17 16 14 13 15 18 20 21 22 22 22 20 17 16 15 14 13 13 14 15 15 15 15 14 12 12 13 14 15 14
11 12 13 14 14 13 13 13 13 13 13 13 13 12 12 12 11 10 10 11 12 13 14 14 14 14 14 14 15 15 16 15 14 14 14 14 14 15 16 16 15 13 12 14 16 18 20 21 21 21 20 17 16 14 13 13 14 15 14 14 14 14 14 12 11 12 14 17 19
12 13 14 14 14 14 14 14 13 13 13 13 13 13 13 12 11 11 11 11 13 13 14 15 15 14 13 14 15 16 16 15 15 14 14 14 14 15 15 15 15 14 13 13 15 16 18 20 20 20 18 15 14 13 12 13 14 14 14 13 12 12 12 11 10 11 12 15 18
12 13 14 14 14 14 14 14 13 13 12 13 13 13 12 12 12 12 12 12 13 13 13 13 14 14 13 13 14 15 16 16 15 14 14 14 14 14 14 14 14 14 13 13 14 15 16 17 18 18 17 14 13 12 11 12 14 14 14 13 12 11 11 10 10 10 12 13 15
Wind_Direction
170 168 167 172 174 179 183 184 186 185 185 185 186 187 189 191 191 190 191 193 194 193 192 192 193 195 197 197 198 198 199 200 199 198 197 197 198 196 192 187 185 183 182 181 181 181 180 181 179 179 179 180 179 178 176 175 178 181 184 186 188 185 182 181 179 175 172 171 169
171 169 167 170 174 179 182 182 185 187 187 186 187 187 187 190 190 190 191 194 195 193 191 191 192 195 197 197 197 199 200 201 201 200 199 199 199 197 193 189 186 184 183 182 181 180 180 180 180 180 180 180 181 180 179 176 174 177 180 182 183 182 180 180 178 175 171 170 167
171 170 170 175 180 182 183 183 186 189 190 189 189 188 187 188 189 190 192 194 195 195 194 192 190 193 195 196 197 198 199 200 200 200 200 201 200 198 195 191 188 186 185 184 183 183 181 181 181 181 180 180 182 182 180 177 174 176 179 180 179 177 176 176 174 171 169 169 167
172 174 176 182 185 186 186 185 186 189 191 191 191 190 189 188 188 190 193 195 197 198 197 194 190 190 192 194 196 198 198 199 198 199 200 202 201 200 197 193 189 187 186 185 185 185 184 182 182 183 183 183 183 183 181 177 175 177 178 178 176 175 175 172 170 167 167 168 168
175 180 183 186 188 189 189 188 187 189 191 193 193 192 190 187 187 190 193 195 199 200 198 194 190 190 191 191 195 197 198 198 197 198 199 201 202 201 199 196 192 190 188 187 187 187 186 183 183 184 185 184 184 183 180 176 175 176 176 176 174 174 173 171 168 166 165 165 166
179 184 187 189 190 191 192 192 191 192 193 196 196 195 193 189 189 191 194 197 203 204 201 194 191 191 193 192 194 196 198 199 199 199 200 201 202 202 200 198 196 193 191 189 188 187 185 183 184 184 185 185 185 181 177 174 174 175 175 174 173 172 172 171 168 166 165 164 162
183 185 188 189 191 192 194 194 194 195 196 199 200 199 197 193 191 193 196 198 205 207 205 199 195 196 197 196 195 194 195 197 200 201 201 201 201 201 200 198 196 194 192 190 188 186 185 184 184 184 183 183 182 178 175 174 174 174 175 174 172 171 171 171 168 166 166 165 164
185 187 188 187 190 192 194 194 193 194 197 202 203 203 202 200 198 197 197 198 205 209 212 211 208 206 204 201 198 195 194 196 199 201 202 202 200 200 199 198 196 194 192 189 187 186 186 186 186 185 183 184 182 178 176 177 178 178 177 176 173 172 172 172 170 168 167 167 165
185 188 188 186 188 191 194 193 193 194 198 205 209 211 212 212 207 203 200 199 205 210 214 217 216 215 213 210 205 200 197 196 198 201 202 202 199 198 197 197 196 195 193 190 189 188 188 188 189 187 184 184 183 180 177 178 180 181 180 177 175 174 174 174 172 170 168 167 166
184 187 187 185 186 190 193 194 194 197 201 209 216 220 222 220 214 209 205 204 205 208 211 215 217 217 217 216 212 207 202 198 199 201 202 201 198 196 195 195 195 195 194 192 190 190 190 190 190 189 186 186 186 182 179 179 182 182 181 179 178 177 177 177 175 173 171 170 169
183 184 183 181 183 187 191 194 196 199 204 212 219 221 222 219 217 214 211 207 206 207 209 211 212 213 214 215 215 213 209 204 201 201 202 202 199 196 194 193 194 195 195 194 192 191 191 191 191 190 188 188 188 185 182 181 183 183 183 182 181 179 179 180 178 177 175 174 172
177 177 176 174 176 180 186 191 193 197 204 210 213 214 214 212 213 213 211 207 205 205 206 205 206 207 209 210 211 212 211 209 206 205 204 204 202 199 197 195 195 195 196 196 193 191 190 192 192 191 189 188 188 186 184 182 183 184 185 184 183 182 181 181 180 180 178 176 174
164 164 164 164 166 170 175 181 183 190 197 203 204 204 204 204 206 209 211 210 208 207 205 202 202 205 207 208 206 207 208 210 209 208 207 206 205 203 201 200 198 197 196 196 193 191 191 193 193 191 189 187 188 187 185 183 183 184 185 185 184 183 182 181 181 181 180 178 177
152 154 156 157 159 163 169 174 177 183 190 195 198 201 202 204 204 208 211 214 214 213 211 206 204 207 210 211 208 205 205 208 211 212 211 209 208 207 205 205 202 199 196 195 193 193 193 194 193 191 189 187 187 187 185 185 184 184 184 184 184 183 182 181 181 181 180 180 179
152 155 158 160 163 169 174 177 180 187 192 197 200 203 208 214 209 208 211 216 218 219 218 213 209 210 213 215 213 209 206 207 212 214 215 213 212 210 209 209 206 202 199 196 194 194 194 194 193 192 189 187 187 186 186 187 185 185 184 183 182 181 180 179 179 180 180 181 180
157 161 164 166 173 179 183 183 187 192 197 203 205 208 212 219 214 210 210 216 218 220 220 219 216 214 215 219 221 218 213 211 214 216 217 216 214 212 211 210 209 206 203 200 198 197 196 196 194 192 190 188 187 186 186 188 187 186 185 183 181 179 177 176 176 177 179 180 179
160 164 167 170 178 185 190 191 193 195 200 208 211 213 215 219 215 211 211 217 219 220 221 224 223 222 222 224 228 228 225 220 219 219 218 217 213 212 211 210 210 208 206 203 201 199 198 197 194 191 188 187 186 185 186 188 188 187 185 182 179 177 175 172 173 174 176 178 178
163 166 169 173 179 185 191 193 194 195 198 206 211 217 221 221 214 210 212 221 224 225 224 226 228 230 229 228 229 231 233 230 228 225 223 219 214 212 210 210 209 207 205 203 201 200 198 196 193 190 186 185 184 184 185 186 186 184 182 179 176 174 172 170 170 171 172 175 176
164 166 169 174 176 177 181 184 185 182 182 187 192 203 211 210 201 199 204 214 222 225 225 222 224 226 227 225 222 223 228 235 235 233 230 226 219 215 212 210 208 205 203 200 199 197 195 193 190 186 182 181 181 182 182 183 182 180 177 174 173 171 169 167 167 167 169 172 172
160 161 164 166 162 160 161 168 166 162 159 162 167 173 179 182 184 186 190 198 208 213 215 211 211 214 216 216 213 211 214 227 233 234 233 231 225 219 213 210 207 204 200 197 195 193 191 189 184 180 177 177 177 177 177 178 177 174 172 170 169 166 164 162 163 165 167 170 169
150 149 150 150 148 149 152 157 152 149 147 150 154 157 160 166 174 176 176 179 186 192 196 195 196 198 202 203 201 198 198 211 222 225 227 228 224 217 210 206 204 201 197 193 191 188 187 185 181 177 174 173 172 172 172 172 171 170 169 168 165 162 159 158 161 163 165 166 166
139 140 142 143 143 143 143 141 139 139 141 144 146 149 152 157 160 159 158 159 166 172 175 176 182 186 189 186 186 182 181 196 211 216 217 221 216 209 201 197 198 196 193 189 185 183 183 183 180 177 173 172 172 170 168 167 166 166 165 165 161 158 156 156 157 157 155 152 149
135 137 137 136 135 134 132 132 133 136 138 140 140 141 141 142 142 142 142 144 150 152 152 150 165 173 172 164 163 160 165 189 205 210 215 225 216 201 191 187 190 190 187 181 179 178 178 179 178 176 173 172 172 170 167 164 162 162 161 160 156 153 150 149 146 140 133 124 116
135 135 133 131 131 131 131 132 134 135 136 137 137 136 134 131 133 134 135 135 134 130 124 122 132 135 133 136 144 152 165 184 186 187 194 223 216 192 182 177 181 182 179 172 172 172 173 174 175 174 172 172 173 171 168 164 161 157 154 149 145 140 136 131 126 120 113 105 96
132 132 130 130 131 132 134 136 138 138 137 138 137 135 132 130 132 132 131 127 123 120 117 115 116 116 117 125 138 152 163 172 164 157 154 151 128 129 143 157 166 168 165 152 150 153 158 163 168 170 170 169 169 167 163 159 152 145 140 135 130 126 121 116 112 108 105 100 96
130 129 129 129 131 133 136 139 139 138 138 138 137 134 132 131 133 133 130 123 117 113 109 105 100 99 105 125 133 140 145 145 143 142 137 124 101 85 76 72 82 92 98 97 110 113 114 116 124 136 145 148 143 137 131 127 125 124 124 124 124 122 120 115 111 107 103 101 100
131 129 128 129 132 135 137 139 139 138 138 137 135 133 132 131 130 127 122 115 109 102 97 91 91 90 96 117 125 129 130 126 124 119 111 98 86 76 68 62 58 61 76 90 96 96 95 94 93 95 99 104 102 101 100 100 104 109 114 118 120 121 120 118 115 111 108 106 105
133 130 129 130 133 136 137 138 137 137 135 133 130 127 124 121 119 115 110 105 101 96 92 90 90 89 90 96 102 102 99 94 91 87 83 78 73 69 65 63 63 72 85 93 95 95 94 94 93 93 94 96 96 96 96 97 98 100 103 108 113 116 117 118 117 117 115 114 110
133 130 129 129 132 134 135 136 134 131 127 124 121 118 115 114 112 109 106 102 98 95 91 88 84 80 75 73 74 74 73 72 73 74 74 74 71 69 67 69 72 79 87 92 93 94 94 94 94 94 95 95 95 93 92 91 92 92 93 95 102 108 113 116 117 118 118 116 112
134 132 130 130 130 132 133 132 127 124 121 119 118 117 116 114 111 107 103 98 93 87 83 79 76 74 72 71 71 71 71 72 74 77 78 77 75 73 72 72 76 81 87 90 92 92 92 92 93 93 93 93 93 92 90 89 89 89 89 91 96 101 104 108 111 113 114 115 112
138 134 131 130 131 133 132 129 124 122 121 120 121 120 117 112 106 99 92 87 82 79 78 79 78 75 73 73 74 75 77 77 78 80 81 82 80 78 76 75 76 81 87 90 91 91 91 90 90 91 91 91 92 92 91 90 89 88 87 89 92 94 96 97 100 103 106 109 109
137 130 126 126 128 128 126 122 122 122 122 122 119 113 106 99 93 89 85 83 82 80 78 77 76 75 73 73 74 75 77 78 79 81 83 85 84 82 78 75 74 79 86 90 91 91 90 89 89 88 88 88 90 90 90 89 86 84 83 83 85 86 87 89 92 94 96 98 101
129 123 120 121 120 120 118 116 114 111 108 104 99 94 91 88 87 86 85 84 82 80 78 77 76 76 76 76 77 78 78 79 81 83 85 87 87 85 82 77 74 77 84 90 91 91 91 90 89 87 86 86 87 88 88 87 84 81 79 77 77 77 79 82 85 87 89 89 91
126 121 120 119 118 115 111 104 98 92 88 86 86 87 89 90 90 89 87 85 82 80 77 75 76 75 76 76 78 80 81 82 84 86 87 89 89 87 84 79 75 76 83 90 92 93 93 92 90 89 87 86 86 86 86 85 83 80 78 76 73 72 72 74 77 80 82 84 85
129 126 124 121 115 108 101 97 94 93 91 89 89 89 89 89 89 89 88 87 85 81 78 75 75 75 74 72 74 77 80 82 84 85 87 89 89 88 86 83 79 77 81 89 93 94 95 94 93 92 90 88 87 86 86 85 83 81 79 77 74 71 70 70 71 74 77 81 84
132 129 124 116 108 103 100 100 99 98 96 95 93 92 90 88 88 88 90 90 88 85 81 78 77 77 77 76 76 77 79 83 85 86 88 89 91 91 90 88 83 78 79 86 92 95 96 97 96 95 93 91 90 89 87 86 85 83 81 79 76 73 71 69 69 70 73 77 83
132 125 117 110 107 106 105 104 102 101 99 98 97 95 93 91 89 88 89 91 89 87 84 81 80 80 80 81 80 78 79 81 85 87 88 89 92 93 93 91 86 80 78 83 90 94 96 98 98 98 97 96 96 94 93 90 89 86 84 81 78 75 72 70 68 67 69 72 79
127 120 115 112 111 110 108 106 104 102 101 100 98 96 94 92 89 86 86 88 91 90 88 85 82 81 81 82 80 78 75 74 78 82 84 85 89 92 94 93 88 82 79 82 88 93 96 98 98 99 100 101 101 100 98 95 93 90 87 85 82 78 75 72 70 70 71 74 81
122 119 117 116 114 112 110 107 106 104 103 102 99 96 94 91 89 87 87 88 91 92 91 88 86 84 84 84 83 80 76 73 73 76 79 81 83 87 90 92 89 84 80 81 87 92 95 97 98 99 100 102 103 102 101 99 97 94 92 90 87 83 80 78 78 79 79 80 81
119 120 120 118 116 114 111 109 107 106 106 104 101 98 96 95 94 92 91 89 91 91 91 90 89 88 87 86 86 84 81 76 73 74 76 78 79 82 85 89 88 85 82 81 86 91 95 98 99 100 101 102 103 104 104 103 101 99 97 96 95 93 91 89 89 87 85 81 78
116 117 118 117 116 114 113 110 108 107 105 104 103 102 101 101 100 99 97 95 94 93 92 92 92 91 89 86 86 85 83 79 75 74 74 75 76 77 80 84 86 86 83 81 84 89 93 97 100 102 103 104 105 106 107 107 105 104 104 104 104 104 103 100 95 89 84 79 75